Year,Month,Day,Hour,Minute,Value (Times are PST for barometer in hPa)
2010,04,02,00,00,1006.84
2010,04,02,00,01,1006.74
2010,04,02,00,02,1006.77
2010,04,02,00,03,1006.67
2010,04,02,00,04,1006.74
2010,04,02,00,05,1006.74
2010,04,02,00,06,1006.67
2010,04,02,00,07,1006.67
2010,04,02,00,08,1006.77
2010,04,02,00,09,1006.71
2010,04,02,00,10,1006.67
2010,04,02,00,11,1006.71
2010,04,02,00,12,1006.71
2010,04,02,00,13,1006.67
2010,04,02,00,14,1006.67
2010,04,02,00,15,1006.64
2010,04,02,00,16,1006.60
2010,04,02,00,17,1006.67
2010,04,02,00,18,1006.60
2010,04,02,00,19,1006.54
2010,04,02,00,20,1006.50
2010,04,02,00,21,1006.50
2010,04,02,00,22,1006.44
2010,04,02,00,23,1006.44
2010,04,02,00,24,1006.40
2010,04,02,00,25,1006.37
2010,04,02,00,26,1006.33
2010,04,02,00,27,1006.33
2010,04,02,00,28,1006.33
2010,04,02,00,29,1006.30
2010,04,02,00,30,1006.23
2010,04,02,00,31,1006.20
2010,04,02,00,32,1006.20
2010,04,02,00,33,1006.20
2010,04,02,00,34,1006.20
2010,04,02,00,35,1006.16
2010,04,02,00,36,1006.13
2010,04,02,00,37,1006.13
2010,04,02,00,38,1006.13
2010,04,02,00,39,1006.10
2010,04,02,00,40,1006.06
2010,04,02,00,41,1005.99
2010,04,02,00,42,1005.96
2010,04,02,00,43,1005.86
2010,04,02,00,44,1005.89
2010,04,02,00,45,1005.86
2010,04,02,00,46,1005.79
2010,04,02,00,47,1005.76
2010,04,02,00,48,1005.66
2010,04,02,00,49,1005.59
2010,04,02,00,50,1005.59
2010,04,02,00,51,1005.49
2010,04,02,00,52,1005.59
2010,04,02,00,53,1005.55
2010,04,02,00,54,1005.52
2010,04,02,00,55,1005.49
2010,04,02,00,56,1005.42
2010,04,02,00,57,1005.42
2010,04,02,00,58,1005.42
2010,04,02,00,59,1005.39
2010,04,02,01,00,1005.32
2010,04,02,01,01,1005.28
2010,04,02,01,02,1005.32
2010,04,02,01,03,1005.25
2010,04,02,01,04,1005.28
2010,04,02,01,05,1005.25
2010,04,02,01,06,1005.18
2010,04,02,01,07,1005.18
2010,04,02,01,08,1005.15
2010,04,02,01,09,1005.08
2010,04,02,01,10,1005.15
2010,04,02,01,11,1005.08
2010,04,02,01,12,1005.08
2010,04,02,01,13,1005.01
2010,04,02,01,14,1005.05
2010,04,02,01,15,1005.05
2010,04,02,01,16,1005.08
2010,04,02,01,17,1004.98
2010,04,02,01,18,1004.91
2010,04,02,01,19,1004.95
2010,04,02,01,20,1004.91
2010,04,02,01,21,1004.95
2010,04,02,01,22,1004.98
2010,04,02,01,23,1004.95
2010,04,02,01,24,1004.91
2010,04,02,01,25,1004.81
2010,04,02,01,26,1004.74
2010,04,02,01,27,1004.74
2010,04,02,01,28,1004.78
2010,04,02,01,29,1004.78
2010,04,02,01,30,1004.78
2010,04,02,01,31,1004.74
2010,04,02,01,32,1004.67
2010,04,02,01,33,1004.64
2010,04,02,01,34,1004.64
2010,04,02,01,35,1004.54
2010,04,02,01,36,1004.50
2010,04,02,01,37,1004.47
2010,04,02,01,38,1004.50
2010,04,02,01,39,1004.47
2010,04,02,01,40,1004.50
2010,04,02,01,41,1004.50
2010,04,02,01,42,1004.50
2010,04,02,01,43,1004.47
2010,04,02,01,44,1004.47
2010,04,02,01,45,1004.44
2010,04,02,01,46,1004.37
2010,04,02,01,47,1004.37
2010,04,02,01,48,1004.30
2010,04,02,01,49,1004.20
2010,04,02,01,50,1004.13
2010,04,02,01,51,1004.13
2010,04,02,01,52,1004.17
2010,04,02,01,53,1004.20
2010,04,02,01,54,1004.13
2010,04,02,01,55,1004.13
2010,04,02,01,56,1004.20
2010,04,02,01,57,1004.23
2010,04,02,01,58,1004.27
2010,04,02,01,59,1004.23
2010,04,02,02,00,1004.00
2010,04,02,02,01,1004.00
2010,04,02,02,02,1004.00
2010,04,02,02,03,1004.00
2010,04,02,02,04,1004.03
2010,04,02,02,05,1004.00
2010,04,02,02,06,1004.03
2010,04,02,02,07,1004.03
2010,04,02,02,08,1004.10
2010,04,02,02,09,1004.06
2010,04,02,02,10,1004.00
2010,04,02,02,11,1003.93
2010,04,02,02,12,1003.93
2010,04,02,02,13,1003.90
2010,04,02,02,14,1003.83
2010,04,02,02,15,1003.79
2010,04,02,02,16,1003.76
2010,04,02,02,17,1003.73
2010,04,02,02,18,1003.69
2010,04,02,02,19,1003.66
2010,04,02,02,20,1003.66
2010,04,02,02,21,1003.69
2010,04,02,02,22,1003.69
2010,04,02,02,23,1003.62
2010,04,02,02,24,1003.62
2010,04,02,02,25,1003.62
2010,04,02,02,26,1003.59
2010,04,02,02,27,1003.62
2010,04,02,02,28,1003.62
2010,04,02,02,29,1003.59
2010,04,02,02,30,1003.52
2010,04,02,02,31,1003.52
2010,04,02,02,32,1003.49
2010,04,02,02,33,1003.42
2010,04,02,02,34,1003.42
2010,04,02,02,35,1003.42
2010,04,02,02,36,1003.32
2010,04,02,02,37,1003.39
2010,04,02,02,38,1003.39
2010,04,02,02,39,1003.39
2010,04,02,02,40,1003.32
2010,04,02,02,41,1003.25
2010,04,02,02,42,1003.22
2010,04,02,02,43,1003.18
2010,04,02,02,44,1003.15
2010,04,02,02,45,1003.25
2010,04,02,02,46,1003.18
2010,04,02,02,47,1003.12
2010,04,02,02,48,1003.12
2010,04,02,02,49,1003.12
2010,04,02,02,50,1003.15
2010,04,02,02,51,1003.01
2010,04,02,02,52,1002.95
2010,04,02,02,53,1003.01
2010,04,02,02,54,1003.01
2010,04,02,02,55,1002.91
2010,04,02,02,56,1003.01
2010,04,02,02,57,1002.91
2010,04,02,02,58,1002.98
2010,04,02,02,59,1002.91
2010,04,02,03,00,1002.91
2010,04,02,03,01,1002.91
2010,04,02,03,02,1002.81
2010,04,02,03,03,1002.81
2010,04,02,03,04,1002.74
2010,04,02,03,05,1002.78
2010,04,02,03,06,1002.74
2010,04,02,03,07,1002.71
2010,04,02,03,08,1002.74
2010,04,02,03,09,1002.68
2010,04,02,03,10,1002.61
2010,04,02,03,11,1002.57
2010,04,02,03,12,1002.51
2010,04,02,03,13,1002.44
2010,04,02,03,14,1002.44
2010,04,02,03,15,1002.41
2010,04,02,03,16,1002.44
2010,04,02,03,17,1002.41
2010,04,02,03,18,1002.37
2010,04,02,03,19,1002.41
2010,04,02,03,20,1002.44
2010,04,02,03,21,1002.44
2010,04,02,03,22,1002.47
2010,04,02,03,23,1002.44
2010,04,02,03,24,1002.47
2010,04,02,03,25,1002.44
2010,04,02,03,26,1002.44
2010,04,02,03,27,1002.37
2010,04,02,03,28,1002.34
2010,04,02,03,29,1002.27
2010,04,02,03,30,1002.24
2010,04,02,03,31,1002.20
2010,04,02,03,32,1002.13
2010,04,02,03,33,1002.13
2010,04,02,03,34,1002.07
2010,04,02,03,35,1002.07
2010,04,02,03,36,1002.03
2010,04,02,03,37,1001.97
2010,04,02,03,38,1002.00
2010,04,02,03,39,1002.00
2010,04,02,03,40,1002.00
2010,04,02,03,41,1001.93
2010,04,02,03,42,1001.93
2010,04,02,03,43,1001.93
2010,04,02,03,44,1001.90
2010,04,02,03,45,1001.90
2010,04,02,03,46,1001.86
2010,04,02,03,47,1001.86
2010,04,02,03,48,1001.86
2010,04,02,03,49,1001.83
2010,04,02,03,50,1001.83
2010,04,02,03,51,1001.86
2010,04,02,03,52,1001.86
2010,04,02,03,53,1001.80
2010,04,02,03,54,1001.83
2010,04,02,03,55,1001.80
2010,04,02,03,56,1001.76
2010,04,02,03,57,1001.76
2010,04,02,03,58,1001.76
2010,04,02,03,59,1001.73
2010,04,02,04,00,1001.76
2010,04,02,04,01,1001.69
2010,04,02,04,02,1001.66
2010,04,02,04,03,1001.59
2010,04,02,04,04,1001.59
2010,04,02,04,05,1001.56
2010,04,02,04,06,1001.63
2010,04,02,04,07,1001.66
2010,04,02,04,08,1001.73
2010,04,02,04,09,1001.73
2010,04,02,04,10,1001.66
2010,04,02,04,11,1001.69
2010,04,02,04,12,1001.66
2010,04,02,04,13,1001.56
2010,04,02,04,14,1001.56
2010,04,02,04,15,1001.49
2010,04,02,04,16,1001.49
2010,04,02,04,17,1001.46
2010,04,02,04,18,1001.42
2010,04,02,04,19,1001.42
2010,04,02,04,20,1001.36
2010,04,02,04,21,1001.32
2010,04,02,04,22,1001.29
2010,04,02,04,23,1001.25
2010,04,02,04,24,1001.29
2010,04,02,04,25,1001.22
2010,04,02,04,26,1001.22
2010,04,02,04,27,1001.22
2010,04,02,04,28,1001.19
2010,04,02,04,29,1001.12
2010,04,02,04,30,1001.05
2010,04,02,04,31,1000.98
2010,04,02,04,32,1000.92
2010,04,02,04,33,1000.92
2010,04,02,04,34,1000.81
2010,04,02,04,35,1000.78
2010,04,02,04,36,1000.78
2010,04,02,04,37,1000.75
2010,04,02,04,38,1000.71
2010,04,02,04,39,1000.71
2010,04,02,04,40,1000.68
2010,04,02,04,41,1000.61
2010,04,02,04,42,1000.61
2010,04,02,04,43,1000.61
2010,04,02,04,44,1000.58
2010,04,02,04,45,1000.54
2010,04,02,04,46,1000.51
2010,04,02,04,47,1000.48
2010,04,02,04,48,1000.48
2010,04,02,04,49,1000.41
2010,04,02,04,50,1000.31
2010,04,02,04,51,1000.24
2010,04,02,04,52,1000.17
2010,04,02,04,53,1000.14
2010,04,02,04,54,1000.10
2010,04,02,04,55,1000.03
2010,04,02,04,56,999.97
2010,04,02,04,57,999.93
2010,04,02,04,58,999.87
2010,04,02,04,59,999.87
2010,04,02,05,00,999.87
2010,04,02,05,01,999.73
2010,04,02,05,02,999.76
2010,04,02,05,03,999.76
2010,04,02,05,04,999.73
2010,04,02,05,05,999.63
2010,04,02,05,06,999.56
2010,04,02,05,07,999.56
2010,04,02,05,08,999.56
2010,04,02,05,09,999.53
2010,04,02,05,10,999.56
2010,04,02,05,11,999.56
2010,04,02,05,12,999.56
2010,04,02,05,13,999.46
2010,04,02,05,14,999.39
2010,04,02,05,15,999.29
2010,04,02,05,16,999.32
2010,04,02,05,17,999.32
2010,04,02,05,18,999.26
2010,04,02,05,19,999.19
2010,04,02,05,20,999.15
2010,04,02,05,21,999.15
2010,04,02,05,22,999.12
2010,04,02,05,23,999.09
2010,04,02,05,24,998.92
2010,04,02,05,25,998.85
2010,04,02,05,26,998.78
2010,04,02,05,27,998.71
2010,04,02,05,28,998.71
2010,04,02,05,29,998.65
2010,04,02,05,30,998.54
2010,04,02,05,31,998.48
2010,04,02,05,32,998.48
2010,04,02,05,33,998.44
2010,04,02,05,34,998.34
2010,04,02,05,35,998.27
2010,04,02,05,36,998.24
2010,04,02,05,37,998.17
2010,04,02,05,38,998.09
2010,04,02,05,39,997.97
2010,04,02,05,40,998.00
2010,04,02,05,41,997.87
2010,04,02,05,42,997.90
2010,04,02,05,43,997.80
2010,04,02,05,44,997.83
2010,04,02,05,45,997.83
2010,04,02,05,46,997.77
2010,04,02,05,47,997.70
2010,04,02,05,48,997.60
2010,04,02,05,49,997.56
2010,04,02,05,50,997.43
2010,04,02,05,51,997.36
2010,04,02,05,52,997.39
2010,04,02,05,53,997.25
2010,04,02,05,54,997.12
2010,04,02,05,55,996.99
2010,04,02,05,56,997.02
2010,04,02,05,57,996.99
2010,04,02,05,58,996.99
2010,04,02,05,59,997.02
2010,04,02,06,00,996.99
2010,04,02,06,01,997.02
2010,04,02,06,02,996.95
2010,04,02,06,03,996.95
2010,04,02,06,04,997.02
2010,04,02,06,05,996.95
2010,04,02,06,06,996.85
2010,04,02,06,07,996.85
2010,04,02,06,08,996.78
2010,04,02,06,09,996.82
2010,04,02,06,10,996.82
2010,04,02,06,11,996.75
2010,04,02,06,12,996.75
2010,04,02,06,13,996.75
2010,04,02,06,14,996.72
2010,04,02,06,15,996.78
2010,04,02,06,16,996.61
2010,04,02,06,17,996.51
2010,04,02,06,18,996.51
2010,04,02,06,19,996.48
2010,04,02,06,20,996.45
2010,04,02,06,21,996.31
2010,04,02,06,22,996.45
2010,04,02,06,23,996.45
2010,04,02,06,24,996.28
2010,04,02,06,25,996.34
2010,04,02,06,26,996.34
2010,04,02,06,27,996.31
2010,04,02,06,28,996.34
2010,04,02,06,29,996.31
2010,04,02,06,30,996.31
2010,04,02,06,31,996.34
2010,04,02,06,32,996.11
2010,04,02,06,33,996.11
2010,04,02,06,34,996.23
2010,04,02,06,35,996.11
2010,04,02,06,36,996.21
2010,04,02,06,37,996.21
2010,04,02,06,38,996.24
2010,04,02,06,39,996.28
2010,04,02,06,40,996.28
2010,04,02,06,41,996.07
2010,04,02,06,42,996.04
2010,04,02,06,43,995.94
2010,04,02,06,44,995.90
2010,04,02,06,45,995.87
2010,04,02,06,46,995.90
2010,04,02,06,47,995.70
2010,04,02,06,48,995.77
2010,04,02,06,49,995.56
2010,04,02,06,50,995.56
2010,04,02,06,51,995.53
2010,04,02,06,52,995.46
2010,04,02,06,53,995.36
2010,04,02,06,54,995.46
2010,04,02,06,55,995.52
2010,04,02,06,56,995.19
2010,04,02,06,57,995.12
2010,04,02,06,58,995.12
2010,04,02,06,59,995.06
2010,04,02,07,00,995.09
2010,04,02,07,01,995.02
2010,04,02,07,02,995.04
2010,04,02,07,03,994.74
2010,04,02,07,04,994.58
2010,04,02,07,05,994.62
2010,04,02,07,06,994.38
2010,04,02,07,07,994.38
2010,04,02,07,08,994.38
2010,04,02,07,09,994.31
2010,04,02,07,10,994.31
2010,04,02,07,11,994.28
2010,04,02,07,12,994.18
2010,04,02,07,13,994.18
2010,04,02,07,14,994.24
2010,04,02,07,15,994.14
2010,04,02,07,16,994.24
2010,04,02,07,17,994.24
2010,04,02,07,18,994.07
2010,04,02,07,19,993.84
2010,04,02,07,20,994.11
2010,04,02,07,21,993.91
2010,04,02,07,22,993.60
2010,04,02,07,23,993.84
2010,04,02,07,24,993.63
2010,04,02,07,25,993.67
2010,04,02,07,26,993.67
2010,04,02,07,27,993.53
2010,04,02,07,28,993.53
2010,04,02,07,29,993.40
2010,04,02,07,30,993.36
2010,04,02,07,31,993.30
2010,04,02,07,32,993.06
2010,04,02,07,33,993.26
2010,04,02,07,34,993.13
2010,04,02,07,35,992.89
2010,04,02,07,36,992.82
2010,04,02,07,37,992.81
2010,04,02,07,38,992.69
2010,04,02,07,39,992.72
2010,04,02,07,40,992.75
2010,04,02,07,41,992.45
2010,04,02,07,42,992.65
2010,04,02,07,43,992.62
2010,04,02,07,44,992.69
2010,04,02,07,45,992.35
2010,04,02,07,46,992.10
2010,04,02,07,47,991.98
2010,04,02,07,48,992.18
2010,04,02,07,49,992.21
2010,04,02,07,50,992.11
2010,04,02,07,51,991.98
2010,04,02,07,52,991.82
2010,04,02,07,53,991.91
2010,04,02,07,54,991.77
2010,04,02,07,55,991.91
2010,04,02,07,56,991.81
2010,04,02,07,57,991.93
2010,04,02,07,58,991.67
2010,04,02,07,59,991.74
2010,04,02,08,00,991.64
2010,04,02,08,01,991.60
2010,04,02,08,02,991.40
2010,04,02,08,03,991.67
2010,04,02,08,04,991.37
2010,04,02,08,05,991.43
2010,04,02,08,06,991.43
2010,04,02,08,07,991.53
2010,04,02,08,08,991.43
2010,04,02,08,09,991.40
2010,04,02,08,10,991.33
2010,04,02,08,11,991.37
2010,04,02,08,12,991.57
2010,04,02,08,13,991.20
2010,04,02,08,14,991.23
2010,04,02,08,15,991.13
2010,04,02,08,16,991.16
2010,04,02,08,17,991.23
2010,04,02,08,18,991.09
2010,04,02,08,19,991.12
2010,04,02,08,20,990.96
2010,04,02,08,21,991.06
2010,04,02,08,22,991.08
2010,04,02,08,23,990.79
2010,04,02,08,24,990.95
2010,04,02,08,25,990.72
2010,04,02,08,26,990.89
2010,04,02,08,27,990.79
2010,04,02,08,28,990.72
2010,04,02,08,29,990.62
2010,04,02,08,30,990.59
2010,04,02,08,31,990.49
2010,04,02,08,32,990.32
2010,04,02,08,33,990.25
2010,04,02,08,34,990.18
2010,04,02,08,35,990.21
2010,04,02,08,36,990.18
2010,04,02,08,37,990.18
2010,04,02,08,38,990.11
2010,04,02,11,04,986.02
2010,04,02,11,05,986.02
2010,04,02,11,06,985.88
2010,04,02,11,07,985.85
2010,04,02,11,08,985.88
2010,04,02,11,09,985.88
2010,04,02,11,10,985.91
2010,04,02,11,11,985.85
2010,04,02,11,12,985.88
2010,04,02,11,13,985.85
2010,04,02,11,14,985.54
2010,04,02,11,15,985.74
2010,04,02,13,46,985.28
2010,04,02,13,47,985.37
2010,04,02,13,48,985.30
2010,04,02,13,49,985.30
2010,04,02,13,50,985.27
2010,04,02,13,51,985.41
2010,04,02,13,52,985.41
2010,04,02,13,53,985.37
2010,04,02,13,54,985.34
2010,04,02,13,55,985.17
2010,04,02,13,56,985.37
2010,04,02,13,57,985.17
2010,04,02,13,58,985.44
2010,04,02,13,59,985.61
2010,04,02,14,00,985.51
2010,04,02,14,01,985.47
2010,04,02,14,02,985.47
2010,04,02,14,03,985.41
2010,04,02,14,04,985.41
2010,04,02,14,05,985.47
2010,04,02,14,06,985.44
2010,04,02,14,07,985.57
2010,04,02,14,08,985.44
2010,04,02,14,09,985.51
2010,04,02,14,10,985.60
2010,04,02,14,11,985.47
2010,04,02,14,12,985.48
2010,04,02,14,13,985.68
2010,04,02,14,14,985.71
2010,04,02,14,15,985.64
2010,04,02,14,16,985.71
2010,04,02,14,17,985.78
2010,04,02,14,18,985.71
2010,04,02,14,19,985.64
2010,04,02,14,20,985.61
2010,04,02,14,21,985.68
2010,04,02,14,22,985.64
2010,04,02,14,23,985.74
2010,04,02,14,24,985.78
2010,04,02,14,25,985.54
2010,04,02,14,26,985.57
2010,04,02,14,27,985.68
2010,04,02,14,28,985.74
2010,04,02,14,29,985.88
2010,04,02,14,30,985.52
2010,04,02,14,31,985.72
2010,04,02,14,32,985.81
2010,04,02,14,33,985.78
2010,04,02,14,34,985.78
2010,04,02,14,35,985.91
2010,04,02,14,36,985.95
2010,04,02,14,37,985.91
2010,04,02,14,38,985.88
2010,04,02,14,39,986.08
2010,04,02,14,40,986.02
2010,04,02,14,41,986.05
2010,04,02,14,42,986.22
2010,04,02,14,43,986.15
2010,04,02,14,44,986.25
2010,04,02,14,45,986.18
2010,04,02,14,46,986.42
2010,04,02,14,47,986.22
2010,04,02,14,48,986.39
2010,04,02,14,49,986.42
2010,04,02,14,50,986.59
2010,04,02,14,51,986.49
2010,04,02,14,52,986.73
2010,04,02,14,53,986.69
2010,04,02,14,54,986.76
2010,04,02,14,55,986.86
2010,04,02,14,56,986.83
2010,04,02,14,57,986.86
2010,04,02,14,58,986.90
2010,04,02,14,59,986.86
2010,04,02,15,00,986.62
2010,04,02,15,01,986.62
2010,04,02,15,02,986.93
2010,04,02,15,03,986.86
2010,04,02,15,04,986.86
2010,04,02,15,05,986.67
2010,04,02,15,06,986.86
2010,04,02,15,07,986.86
2010,04,02,15,08,986.96
2010,04,02,15,09,987.03
2010,04,02,15,10,987.03
2010,04,02,15,11,987.06
2010,04,02,15,12,986.76
2010,04,02,15,13,987.13
2010,04,02,15,14,986.93
2010,04,02,15,15,987.06
2010,04,02,15,16,987.10
2010,04,02,15,17,986.90
2010,04,02,15,18,987.00
2010,04,02,15,19,987.00
2010,04,02,15,20,987.00
2010,04,02,15,21,987.00
2010,04,02,15,22,987.03
2010,04,02,15,23,987.06
2010,04,02,15,24,987.06
2010,04,02,15,25,987.10
2010,04,02,15,26,987.10
2010,04,02,15,27,987.17
2010,04,02,15,28,987.14
2010,04,02,15,29,987.39
2010,04,02,15,30,987.10
2010,04,02,15,31,987.37
2010,04,02,15,32,987.27
2010,04,02,15,33,987.23
2010,04,02,15,34,987.54
2010,04,02,15,35,987.34
2010,04,02,15,36,987.54
2010,04,02,15,37,987.34
2010,04,02,15,38,987.47
2010,04,02,15,39,987.40
2010,04,02,15,40,987.51
2010,04,02,15,41,987.51
2010,04,02,15,42,987.44
2010,04,02,15,43,987.47
2010,04,02,15,44,987.47
2010,04,02,15,45,987.54
2010,04,02,15,46,987.23
2010,04,02,15,47,987.44
2010,04,02,15,48,987.37
2010,04,02,15,49,987.06
2010,04,02,15,50,987.34
2010,04,02,15,51,987.41
2010,04,02,15,52,987.51
2010,04,02,15,53,987.44
2010,04,02,15,54,987.30
2010,04,02,15,55,987.06
2010,04,02,15,56,987.39
2010,04,02,15,57,987.20
2010,04,02,15,58,987.40
2010,04,02,15,59,987.34
2010,04,02,16,00,987.27
2010,04,02,16,01,987.30
2010,04,02,16,02,987.61
2010,04,02,16,03,987.47
2010,04,02,16,04,987.20
2010,04,02,16,05,987.30
2010,04,02,16,06,987.23
2010,04,02,16,07,987.27
2010,04,02,16,08,987.23
2010,04,02,16,09,987.40
2010,04,02,16,10,987.27
2010,04,02,16,11,987.30
2010,04,02,16,12,987.23
2010,04,02,16,13,987.10
2010,04,02,16,14,987.34
2010,04,02,16,15,987.34
2010,04,02,16,16,987.37
2010,04,02,16,17,987.34
2010,04,02,16,18,987.40
2010,04,02,16,19,987.40
2010,04,02,16,20,987.37
2010,04,02,16,21,987.47
2010,04,02,16,22,987.34
2010,04,02,16,23,987.39
2010,04,02,16,24,987.27
2010,04,02,16,25,987.34
2010,04,02,16,26,987.64
2010,04,02,16,27,987.61
2010,04,02,16,28,987.57
2010,04,02,16,29,987.54
2010,04,02,16,30,987.51
2010,04,02,16,31,987.54
2010,04,02,16,32,987.64
2010,04,02,16,33,987.61
2010,04,02,16,34,987.67
2010,04,02,16,35,987.62
2010,04,02,16,36,987.81
2010,04,02,16,37,987.84
2010,04,02,16,38,987.80
2010,04,02,16,39,987.66
2010,04,02,16,40,987.95
2010,04,02,16,41,987.91
2010,04,02,16,42,987.91
2010,04,02,16,43,987.84
2010,04,02,16,44,987.95
2010,04,02,16,45,987.74
2010,04,02,16,46,987.78
2010,04,02,16,47,987.97
2010,04,02,16,48,987.84
2010,04,02,16,49,987.81
2010,04,02,16,50,987.85
2010,04,02,16,51,987.98
2010,04,02,16,52,987.81
2010,04,02,16,53,988.01
2010,04,02,16,54,987.95
2010,04,02,16,55,987.95
2010,04,02,16,56,988.00
2010,04,02,16,57,987.82
2010,04,02,16,58,987.95
2010,04,02,16,59,987.86
2010,04,02,17,00,988.18
2010,04,02,17,01,987.91
2010,04,02,17,02,987.74
2010,04,02,17,03,988.01
2010,04,02,17,04,987.88
2010,04,02,17,05,987.81
2010,04,02,17,06,988.15
2010,04,02,17,07,987.88
2010,04,02,17,08,988.15
2010,04,02,17,09,988.28
2010,04,02,17,10,988.08
2010,04,02,17,11,988.49
